NOAA NWS Hourly Roundups by Site

Regional Weather Roundup for Green Bay, WI

To Select Another Site Choose from List

Select Site:  

000
ASUS43 KGRB 270811
RWRGRB

NORTH-CENTRAL AND NORTHEAST WISCONSIN REGIONAL WEATHER ROUNDUP
NATIONAL WEATHER SERVICE GREEN BAY WI
200 AM CST THU JAN 27 2022

WIZ005-009-010>012-018-019-270900-
NORTH CENTRAL WISCONSIN

CITY           SKY/WX    TMP DP  RH WIND       PRES   REMARKS
IRONWOOD       FLURRIES  19  14  81 SW14      29.71R WCI   6
MANITOWISH WTR CLOUDY    16  10  76 SW9G16    29.71S WCI   5
ARBOR VITAE    FLURRIES  19  -8  30 SW13G23   29.72S WCI   6
EAGLE RIVER    CLOUDY    15   8  73 SW9       29.71S WCI   3
LAND O LAKES   CLOUDY    16  10  77 SW6       29.72R WCI   7
RHINELANDER    CLOUDY    14   7  73 SW12      29.75S WCI   0
PHILLIPS       CLOUDY    17  13  84 SW10      29.75S WCI   4
ANTIGO         CLOUDY    11   4  74 SW15G21   29.79F WCI  -5
TOMAHAWK         N/A     17   9  71 SW7       29.77S WCI   7
MERRILL        CLOUDY    16   8  70 SW9G16    29.79F WCI   4
$$

WIZ013-073-270900-
NORTHEAST WISCONSIN

CITY           SKY/WX    TMP DP  RH WIND       PRES   REMARKS
IRON MOUNTAIN  CLOUDY    15   5  64 SW10      29.74F WCI   2
MARINETTE      CLOUDY    12   3  67 SW14      29.88F WCI  -3
OCONTO         CLOUDY    12   2  66 SW9G16    29.89F WCI  -1
$$

WIZ017-030-035>037-045-270900-
CENTRAL WISCONSIN

CITY           SKY/WX    TMP DP  RH WIND       PRES   REMARKS
MEDFORD        CLOUDY    16   9  75 SW12      29.78F WCI   3
WAUSAU         CLOUDY    16   4  59 S3        29.81F
MOSINEE        CLOUDY    14   7  73 SW13      29.84S WCI   0
MARSHFIELD     CLOUDY    18   8  65 SW15G23   29.83F WCI   4
WISC RAPIDS    CLOUDY    17   7  64 SW13      29.89F WCI   4
STEVENS POINT  CLOUDY    18   4  54 SW13      29.86F WCI   4
WAUPACA        CLOUDY    16   5  60 S13       29.91F WCI   3
SHAWANO        CLOUDY    14   4  64 SW6       29.87F WCI   5
CLINTONVILLE   CLOUDY    14   3  62 SW12      29.90F WCI   0
WAUTOMA        CLOUDY    16   6  65 SW8       29.93F WCI   5
$$

WIZ038-039-048-051-270900-
FOX VALLEY

CITY           SKY/WX    TMP DP  RH WIND       PRES   REMARKS
NWS GREEN BAY  MOCLDY    13   3  64 S12       29.91F WCI  -1
APPLETON       MOCLDY    14   3  62 SW16      29.90S WCI  -2
OSHKOSH        MOCLDY    14   4  64 SW15G26   29.93F WCI  -1
FOND DU LAC    PTCLDY    15   3  59 SW20G29   29.95F WCI  -2
$$

WIZ022-050-052-270900-
EAST CENTRAL WISCONSIN

CITY           SKY/WX    TMP DP  RH WIND       PRES   REMARKS
EPHRAIM        FAIR      12   3  67 SW10G23   29.86F WCI  -2
WASHINGTON ISL CLOUDY    12   4  70 SW21G29   29.88F WCI  -7
STURGEON BAY   CLOUDY    14   5  67 SW16G22   29.89F WCI  -2
MANITOWOC      MOCLDY    18   6  59 SW20      29.95F WCI   2
SHEBOYGAN      MOCLDY    18   5  57 SW17G32   29.96F WCI   3
$$

LMZ563-521-522-541>543-270900-
LAKESHORE

STATION/POSITION TIME  TEMP    WIND        PRES    VSBY  WAVE
                       AIR SEA DIR/SP/G                  HT/PER
                 (UTC) (F)     (DEG/KT/KT) (MB)    (MI)  (FT/S)
SHEBOYGAN LKSHOR 0800   18     230/ 17/ 19 1016.5F
KEWAUNEE LKSHORE 0730   17     220/ 15/ 21 1012.0F
NORTHPORT PIER   0740   13     180/ 11/ 20 1012.5F
GREEN BAY WEST   0730   13     230/  3/  9 1012.3F
MENOMINEE LKSHOR 0730   11 36  200/ 14/ 20 1010.9F
$$


 

View Past Reports for Green Bay, WI.

Products Courtesy of NOAA-NWS
NWS Information Parsing Script by Ken True at Saratoga Weather - Script by SE Lincoln Weather.